CZ-3B R/B, 42663

Orbit data source: Space-Track

CZ-3B R/B, 42663 is space debris in HEO originally from a launch on Wed, 12 Apr 2017 UTC launched from the Xichang Space Center, China (XSC). Debris objects in space refer to the collection of defunct objects orbiting the Earth. Examples of debris include non-operational satellites, rocket bodies, and fragments generated from explosions, collisions, or faulty payload assembly.

Loading next visibility...
CZ-3B R/B details
Identifier
42663, 2017-018B
Orbit
HEO
Last TLE update1 day ago
Origin
Flag of CNCASC (CN / PRC)
ManufacturerCALT
MissionSpacecraft
Bus & MotorCZ-3A STAGE 3, Unknown motor
Mass~2,800 kg wet, ~2,800 kg dry
Launch date (UTC)
2017-04-12 (8 years ago)
Launch vehicleUnknown
Launch site
Xichang Space Center, China (XSC)
Object type
Payload
Rocket body
Debris
Shape & HBRCyl + 1 Nozzle, 12.38 m
Radar Cross Section32.704 m², Large (>1 m²)

Expand to show TLE details & history

TLE from 1 day ago
0 CZ-3B R/B
1 42663U 17018B   24339.38136709  .00012298  00000-0  15707-2 0  9990
2 42663  20.6768 359.8671 6951464 330.9890   3.8430  2.72272443 62669
Epoch: 2024-12-04T09:09Z
Definitive object data (Epoch: 2024-12-04T09:09:10.116Z)
Latitude0.00008°
Longitude148.89132°
Altitude606.351 km
Speed9.784 km/s
True Right ascension23h 59m 26s
True Declination0° 00' 00"
Sunlit
Object was in daylight at TLE epoch
Visualization TLE readout
Latitude1.78172°
Longitude-36.31143°
Altitude24,664.947 km
Speed2.698 km/s
Apparent Right ascension12h 14m 04s
Apparent Declination-5° 59' 46"
Sunlit
Object is in daylight
Visualization observer readout
Local Sidereal Time07:04:54
Azimuth102.806° ESE
Elevation5.785°
Doppler factor1
Orbital elements
Apogee altitude30,352.578 km
Perigee altitude227.482 km
Semi-major axis21,668.167 km
Eccentricity0.6951464
Inclination20.6768°
RAAN359.8671°
Arg. of periapsis330.989°
True anomaly28.70676°
Mean anomaly3.843°
Eccentric anomaly12.38656°
Mean motion0.68047 °/min
BSTAR0.0015707
Orbital period529.04 mins
Loading maneuver chart data...
Loading historical data...
Loading historical data...
Loading historical data...
Loading historical data...
Loading historical data...
Loading historical data...
Loading historical data...
Other satellites on launch #18 in the year 2017 (2017-04-12 UTC)

CZ-3B R/B Visibility forecast

Observer location: undefined°, undefined

Span
Click to sort rows by Start time (UTC) header in descending order
Start Az.
Max El. time (UTC)
Max El. Az.
Max El.
End time (UTC)
End Az.
326 mins2024-12-05 12:19:44.224Z270.726° WNW2024-12-05 13:47:44.224Z254.512° W27.97°2024-12-05 17:45:44.224Z254.355° W
223 mins2024-12-06 05:23:44.224Z207.725° SW2024-12-06 05:38:44.224Z144.569° SSE35.475°2024-12-06 09:06:44.224Z116.64° SE
|